This is the latest recevied weather packets stored in our database for station/object KA9CBS. If no packets are shown the sender has not sent any weather packets the latest 10 day(s).
| Time | Temp. | Humidity | Pressure | Rain* | Wind** | Luminosity | Snow |
|---|---|---|---|---|---|---|---|
| 1787930176 | 26.11° C | 71% | 1022.4 hPa | 0 mm | - | 495 W/m² | - |
| 1787929874 | 26.11° C | 72% | 1022.6 hPa | 0 mm | - | 482 W/m² | - |
| 1787929570 | 25.56° C | 71% | 1022.5 hPa | 0 mm | - | 462 W/m² | - |
| 1787929269 | 25.56° C | 72% | 1022.4 hPa | 0 mm | - | 478 W/m² | - |
| 1787928967 | 25° C | 72% | 1022.6 hPa | 0 mm | - | 498 W/m² | - |
| 1787928661 | 25° C | 74% | 1022.4 hPa | 0 mm | - | 495 W/m² | - |
| 1787928360 | 25° C | 75% | 1022.4 hPa | 0 mm | - | 521 W/m² | - |
| 1787928059 | 25° C | 75% | 1022.5 hPa | 0 mm | - | 508 W/m² | - |
| 1787927758 | 24.44° C | 80% | 1022.2 hPa | 0 mm | - | 448 W/m² | - |
| 1787927453 | 23.89° C | 80% | 1022.5 hPa | 0 mm | - | 373 W/m² | - |
| 1787927149 | 24.44° C | 81% | 1022.4 hPa | 0 mm | - | 335 W/m² | - |
| 1787926849 | 23.89° C | 80% | 1022.4 hPa | 0 mm | - | 341 W/m² | - |
| 1787926549 | 23.89° C | 82% | 1022.5 hPa | 0 mm | - | 319 W/m² | - |
| 1787926247 | 23.33° C | 82% | 1022.5 hPa | 0 mm | - | 303 W/m² | - |
| 1787925942 | 23.33° C | 83% | 1022.4 hPa | 0 mm | - | 295 W/m² | - |
| 1787925637 | 22.78° C | 86% | 1022.3 hPa | 0 mm | - | 261 W/m² | - |
| 1787925332 | 22.78° C | 85% | 1022.3 hPa | 0 mm | - | 253 W/m² | - |
| 1787925031 | 22.22° C | 87% | 1022.1 hPa | 0 mm | - | 235 W/m² | - |
| 1787924726 | 22.22° C | 86% | 1022.2 hPa | 0 mm | - | 213 W/m² | - |
| 1787924425 | 21.67° C | 86% | 1022.2 hPa | 0 mm | - | 205 W/m² | - |
| 1787924120 | 21.67° C | 89% | 1022.1 hPa | 0 mm | - | 188 W/m² | - |
| 1787923815 | 21.67° C | 89% | 1022.3 hPa | 0 mm | - | 171 W/m² | - |
| 1787923510 | 21.11° C | 89% | 1022.1 hPa | 0 mm | - | 156 W/m² | - |
| 1787923205 | 21.11° C | 90% | 1021.9 hPa | 0 mm | - | 149 W/m² | - |
| 1787922901 | 20.56° C | 91% | 1022.1 hPa | 0 mm | - | 131 W/m² | - |
* Rain latest hour (hover to see other rain measurements)
** Current wind speed in m/s (hover to see current wind gust speed)